Starlink 4055

operational
NORAD ID: 53161 Int'l Des: 2022-083 Owner: SPXS Country: US Constellation: starlink
LEOCIRCULAR

About Starlink 4055

Description loading...

Live Position

Loading 3D Globe...

Upcoming Passes

Altitude History

Altitude vs Time

uPlot chart will show altitude changes over time

Two-Line Element Set

1 53161U 22083AF 25340.96156511 .00002780 00000-0 19262-3 0 9999
2 53161 53.2157 220.3921 0001407 79.7958 280.3192 15.08846375187364
Epoch: Dec 6, 2025 • Age: 29 hours

Current Status

Altitude 541.6 km
Velocity 7.60 km/s
Sub-Earth Point 34.34°N, 137.14°W
Launch Date Jul 17, 2022
Age 3.3 years
Type internet

Technical Details

Classification Payload
Mass 297.00 kg
Dry Mass 275.00 kg
Total Mass 297.00 kg
Length 0.20 m
Diameter 2.80 m
Span 9.00 m
Shape Box + pan
Manufacturer SPXS
Bus Type Starlink
Phase Status In Orbit
Owner/State SPXS/US

Large Constellations

Loading constellations...